This is the latest recevied weather packets stored in our database for station/object N6AMQ-1. If no packets are shown the sender has not sent any weather packets the latest 10 day(s).
| Time | Temp. | Humidity | Pressure | Rain* | Wind** | Luminosity | Snow |
|---|---|---|---|---|---|---|---|
| 1788660541 | 20.56° C | 51% | 1013.9 hPa | 0 mm | - | - | - |
| 1788659703 | 21.11° C | 48% | 1013.9 hPa | 0 mm | - | - | - |
| 1788659341 | 21.11° C | 47% | 1013.9 hPa | 0 mm | - | - | - |
| 1788659041 | 21.11° C | 47% | 1013.9 hPa | 0 mm | - | - | - |
| 1788658504 | 21.11° C | 46% | 1013.9 hPa | 0 mm | - | - | - |
| 1788657541 | 21.67° C | 46% | 1013.9 hPa | 0 mm | - | - | - |
| 1788657304 | 22.22° C | 45% | 1013.9 hPa | 0 mm | - | - | - |
| 1788656941 | 22.22° C | 44% | 1013.9 hPa | 0 mm | - | - | - |
| 1788656103 | 23.33° C | 44% | 1013.9 hPa | 0 mm | - | - | - |
| 1788656041 | 23.33° C | 44% | 1013.9 hPa | 0 mm | - | - | - |
| 1788655441 | 23.33° C | 45% | 1013.9 hPa | 0 mm | - | - | - |
| 1788655141 | 23.33° C | 44% | 1013.9 hPa | 0 mm | - | - | - |
| 1788654905 | 23.89° C | 44% | 1013.9 hPa | 0 mm | - | - | - |
| 1788653704 | 23.89° C | 44% | 1013.9 hPa | 0 mm | - | - | - |
| 1788652503 | 25° C | 40% | 1013.9 hPa | 0 mm | - | - | - |
| 1788652141 | 25° C | 40% | 1013.9 hPa | 0 mm | - | - | - |
| 1788651841 | 25° C | 39% | 1013.9 hPa | 0 mm | - | - | - |
| 1788651303 | 25.56° C | 37% | 1013.9 hPa | 0 mm | - | - | - |
| 1788651241 | 25.56° C | 38% | 1013.9 hPa | 0 mm | - | - | - |
| 1788650341 | 25° C | 38% | 1013.9 hPa | 0 mm | - | - | - |
| 1788650102 | 25° C | 38% | 1013.9 hPa | 0 mm | - | - | - |
| 1788648903 | 25° C | 41% | 1012.9 hPa | 0 mm | - | - | - |
| 1788648541 | 25° C | 42% | 1012.9 hPa | 0 mm | - | - | - |
| 1788647941 | 25° C | 41% | 1013.9 hPa | 0 mm | - | - | - |
| 1788647641 | 25° C | 40% | 1013.9 hPa | 0 mm | - | - | - |
* Rain latest hour (hover to see other rain measurements)
** Current wind speed in m/s (hover to see current wind gust speed)